ECMWFNIL_700_spd_057.txt.gz
Wind_Speed
30 30 30 30 31 31 31 30 28 28 27 26 26 25 24 23 22 22 22 23 24 26 27 28 29 30 31 31 32 32 33 33 34 35 36 37 37 39 39 38 36 35
31 31 32 32 33 33 33 32 30 29 28 27 27 26 25 23 23 23 24 25 27 28 29 30 30 31 32 32 32 33 34 34 35 36 37 38 39 40 40 37 36 35
32 33 33 33 34 34 33 32 31 30 29 28 27 26 25 24 24 24 26 27 29 30 30 31 32 32 32 32 33 34 34 34 35 37 38 40 42 42 40 37 36 36
32 33 33 34 35 34 33 32 31 30 29 28 27 27 26 25 25 26 27 29 30 31 32 32 33 33 32 33 33 34 34 35 36 38 40 43 43 42 39 37 36 36
32 33 34 34 35 34 33 32 31 30 29 28 28 27 27 26 27 28 29 31 32 33 33 33 33 33 33 33 33 34 35 36 37 40 43 45 44 41 38 37 36 36
32 33 34 34 34 34 34 33 32 31 30 29 29 28 28 28 28 30 32 33 34 34 34 34 33 33 34 34 34 35 36 37 39 43 45 45 43 41 38 37 37 36
31 32 34 34 35 35 34 33 32 31 31 30 30 30 29 30 31 32 33 34 35 35 35 34 34 34 34 34 35 36 36 38 42 45 46 45 43 40 38 37 37 36
31 32 34 34 35 35 34 34 33 32 32 32 31 31 31 31 32 34 35 35 36 36 35 35 35 35 35 35 35 36 37 40 43 46 46 45 42 40 39 37 37 36
31 33 34 35 35 35 35 34 34 33 33 33 32 32 32 33 34 35 36 36 36 36 36 36 36 35 35 35 36 36 37 40 43 45 46 44 42 40 38 37 36 35
32 33 34 35 35 35 35 35 35 35 34 34 34 34 34 35 36 37 37 37 37 37 37 37 36 36 35 36 36 37 38 40 42 44 44 42 41 39 37 35 34 33
32 33 34 35 35 36 36 36 36 36 36 36 36 36 36 37 37 37 37 37 38 38 39 38 37 36 36 37 37 38 38 39 40 40 41 40 39 38 35 34 33 33
32 33 34 35 36 36 37 37 38 38 37 37 38 38 38 38 38 38 38 38 39 40 40 39 37 37 37 38 38 39 39 38 37 37 39 39 37 36 34 33 32 32
31 33 34 35 36 37 38 39 39 39 39 39 39 40 40 39 38 38 39 40 41 41 41 39 38 38 38 39 39 39 39 38 36 36 37 37 36 35 33 32 32 32
30 32 34 35 37 39 39 40 40 40 40 41 41 41 41 40 39 39 41 42 43 42 41 40 39 39 39 39 40 40 40 38 36 35 36 35 35 34 32 31 31 32
31 32 34 36 38 39 40 41 41 41 42 42 43 42 41 41 41 42 43 44 43 43 42 41 40 40 40 40 40 40 40 39 36 35 35 34 34 33 32 31 31 31
31 32 34 36 38 39 41 42 42 43 43 44 44 43 42 42 43 44 45 44 44 43 42 42 41 40 41 41 41 41 40 38 36 35 34 34 34 32 31 31 31 31
31 32 34 36 38 40 41 42 42 44 44 45 44 44 44 45 45 45 45 44 44 43 42 42 41 41 42 41 41 41 39 37 36 36 35 34 33 32 31 31 32 32
32 33 35 37 39 40 41 42 43 45 45 45 45 45 46 46 46 45 45 44 44 44 43 42 42 42 43 42 41 41 38 37 37 36 34 33 33 32 31 32 32 33
34 35 36 36 38 39 41 42 44 46 46 46 46 46 47 47 46 46 45 45 45 45 43 43 43 44 43 42 41 40 38 37 37 35 34 34 34 33 31 32 33 34
35 36 36 36 37 38 40 43 45 47 47 46 46 47 48 47 47 47 46 46 45 44 44 44 45 44 43 41 41 39 37 38 37 35 34 35 35 34 33 33 35 35
35 35 34 35 36 38 41 45 46 46 45 46 47 48 48 48 48 47 47 46 46 45 45 46 45 43 42 41 40 38 38 38 36 35 36 37 36 34 33 34 36 36
34 32 32 34 36 39 43 45 44 43 44 45 47 48 49 49 49 48 48 47 46 46 46 46 44 42 41 41 40 38 38 37 37 37 38 38 36 34 34 35 37 37
32 32 34 36 39 42 42 40 39 40 42 45 47 48 49 49 49 48 48 47 46 46 47 46 44 42 41 40 40 39 38 39 39 39 39 38 36 35 35 36 37 37
34 35 36 38 39 39 39 37 37 38 40 44 46 47 48 48 48 47 46 46 47 48 48 46 44 42 40 40 40 39 40 41 41 41 40 39 37 36 36 37 37 37
37 37 37 36 37 37 38 38 37 37 38 41 43 45 46 46 46 46 47 48 49 48 46 45 43 41 40 40 41 41 43 43 43 42 41 39 37 37 37 37 38 38
37 36 36 35 36 37 38 39 39 39 40 41 42 43 44 45 46 48 48 48 47 45 44 44 43 42 41 41 43 44 44 45 44 43 41 39 38 38 38 39 39 39

ECMWFNIL_700_spd_060.txt.gz
Wind_Speed
34 35 35 34 33 32 31 32 32 31 32 31 29 28 27 27 26 26 25 25 25 23 23 23 24 24 24 25 26 27 28 28 29 30 31 32 32 32 32 33 36 38
34 34 34 34 33 33 32 32 32 32 32 31 30 30 29 29 28 28 27 26 25 24 25 25 25 25 26 27 27 28 29 30 31 32 32 33 33 33 34 36 39 40
34 34 33 33 34 33 33 33 33 33 34 33 33 32 32 31 30 30 29 27 27 26 26 26 26 27 27 28 29 29 30 31 33 33 34 34 34 34 35 37 38 39
33 33 33 34 34 33 33 33 34 35 35 35 35 34 34 33 32 31 30 29 28 27 28 27 28 28 29 29 30 30 32 33 34 35 35 35 36 36 36 37 37 38
33 33 34 34 33 33 33 34 35 36 37 36 36 36 35 35 33 32 30 29 29 29 29 29 29 29 30 30 31 32 33 35 36 36 36 37 37 37 37 37 37 37
34 34 34 33 33 33 33 34 35 37 37 37 37 36 36 35 33 32 31 30 30 30 30 30 30 31 31 31 32 33 35 36 37 38 38 38 38 38 37 37 36 36
34 33 32 32 32 33 33 34 36 37 38 38 38 37 36 35 33 33 32 32 32 32 32 32 32 32 32 32 33 34 36 37 38 39 39 39 39 38 37 37 36 34
33 32 31 31 32 32 34 35 37 38 39 39 38 37 36 35 34 34 34 33 33 34 33 33 33 32 32 33 34 35 36 38 39 40 40 40 39 39 38 37 36 34
33 32 32 32 32 32 34 35 37 38 39 39 39 38 37 37 36 36 36 36 36 36 35 35 34 33 33 33 34 35 36 38 39 40 41 40 40 40 39 38 36 34
33 32 32 31 31 32 33 35 37 38 39 39 39 39 38 38 39 38 38 38 38 37 36 35 34 34 34 34 35 35 37 38 39 40 40 40 40 40 39 37 35 34
33 32 31 31 31 32 33 35 37 38 39 39 39 40 40 40 40 40 40 39 38 38 36 35 35 35 35 35 35 36 37 38 39 39 40 40 41 40 39 37 36 35
32 31 30 30 31 32 33 35 37 38 39 40 40 41 41 41 41 41 40 40 39 38 37 37 37 37 36 35 35 36 38 38 38 39 40 40 40 40 38 37 36 35
31 30 30 30 31 32 33 35 37 39 40 41 41 42 42 42 42 41 41 40 39 39 39 38 38 38 37 36 36 37 38 38 38 39 40 40 40 39 38 37 35 34
31 30 31 31 32 33 34 36 38 39 41 42 43 43 43 43 43 42 41 41 41 41 40 40 39 38 37 37 38 39 38 38 38 39 40 40 40 38 37 37 35 34
32 31 32 32 34 35 35 37 39 41 42 43 44 44 44 44 43 43 43 43 43 42 41 41 40 39 39 40 40 39 38 38 40 40 40 40 40 38 37 36 34 34
33 33 34 35 36 36 37 39 41 42 44 45 45 46 45 45 45 45 45 44 44 43 42 42 41 41 42 42 41 38 38 40 41 40 40 40 40 38 37 36 34 34
36 36 37 37 38 38 40 41 43 44 46 46 47 47 47 47 46 46 46 45 44 44 44 44 44 44 44 42 40 38 40 41 42 41 41 41 40 38 37 36 35 35
38 39 39 39 39 39 40 42 43 45 47 47 48 48 48 48 48 47 47 46 46 46 46 46 46 45 44 41 39 39 41 43 43 43 42 41 40 38 38 37 35 35
39 40 39 39 38 38 39 40 42 45 47 48 48 48 49 49 49 48 48 48 48 47 47 47 46 45 42 40 40 41 42 45 45 43 43 42 41 40 39 37 36 36
41 40 39 38 38 37 38 39 41 44 46 48 49 50 50 50 50 50 49 49 48 48 48 48 46 44 42 41 42 43 45 46 45 43 44 44 43 42 39 37 37 36
42 41 40 39 39 38 38 39 40 42 44 46 48 49 50 50 51 51 49 48 48 50 50 49 46 44 43 43 43 45 46 46 44 44 45 45 44 42 39 38 38 36
42 42 41 41 40 40 40 40 40 41 43 45 47 48 50 51 51 50 48 49 52 53 52 49 46 44 44 44 45 45 46 45 45 46 47 46 45 42 40 40 39 37
42 43 42 42 41 41 40 39 38 39 39 41 43 45 48 49 48 48 49 53 55 54 51 48 46 45 45 45 44 45 46 46 47 48 48 46 44 42 41 41 40 38
42 43 42 41 41 41 40 39 37 36 36 39 42 44 45 45 45 48 51 53 52 50 48 47 46 45 44 44 45 47 48 48 48 49 48 46 44 43 42 41 40 39
42 42 42 41 39 38 38 37 37 39 41 44 45 44 43 43 44 46 47 47 47 46 47 47 45 44 45 45 47 49 48 47 49 50 48 46 44 43 42 41 41 41
37 38 38 38 37 37 38 39 41 43 43 42 41 41 43 45 46 48 48 47 47 45 45 44 44 44 45 47 48 48 47 47 49 49 47 45 44 43 42 42 43 43

ECMWFNIL_700_spd_063.txt.gz
Wind_Speed
36 36 35 34 35 35 35 35 35 36 34 33 32 33 33 33 33 34 35 36 35 33 31 30 29 28 27 26 25 24 24 24 24 25 26 28 29 29 29 29 29 29
37 37 37 36 35 36 36 36 35 36 35 33 34 34 34 35 35 35 36 36 35 33 31 31 30 29 28 27 26 25 25 25 26 26 27 29 29 30 30 31 30 31
37 38 38 37 35 35 36 36 35 36 35 35 35 35 35 36 36 37 37 37 35 34 32 32 31 30 29 28 27 26 26 26 27 28 29 30 31 31 32 32 31 32
36 37 38 37 36 35 36 36 35 36 36 35 35 35 36 37 38 38 38 37 36 35 34 33 32 31 30 29 28 28 28 28 28 29 30 31 31 32 32 31 31 32
35 36 38 37 36 35 36 35 35 35 36 35 35 35 36 38 39 40 40 39 38 36 35 34 33 33 31 30 30 29 29 29 29 30 32 32 32 32 31 30 30 32
33 35 36 37 36 35 35 34 35 35 35 35 35 36 37 39 41 41 41 40 39 38 37 36 35 34 32 31 31 31 31 31 31 32 33 33 32 31 30 30 30 32
30 32 35 36 35 35 34 34 35 35 35 35 35 37 38 40 42 43 42 41 40 39 38 37 36 35 33 33 32 32 32 32 33 33 33 33 32 31 30 30 31 32
28 30 32 34 34 34 34 35 35 35 35 35 36 38 39 41 44 44 43 43 41 40 39 38 37 36 35 34 34 34 34 34 34 34 34 33 33 32 31 31 32 32
27 28 30 32 34 34 35 35 35 35 35 36 37 39 40 42 44 45 44 43 42 42 41 40 39 38 37 36 36 36 35 35 34 34 35 35 34 34 33 33 33 33
28 28 30 32 33 34 35 35 35 35 36 37 38 39 41 43 45 46 45 45 44 43 42 41 40 39 38 38 37 37 36 35 35 35 36 37 36 35 34 34 34 34
28 28 30 32 33 34 35 35 35 36 36 37 38 40 41 43 45 46 46 46 45 44 43 43 41 40 39 38 38 37 36 36 37 37 38 38 37 36 35 35 34 34
27 28 29 31 33 34 35 35 36 36 37 37 38 39 41 43 45 47 47 47 46 45 44 43 42 40 39 39 38 38 37 38 38 39 39 39 38 37 37 36 34 33
26 27 29 31 34 35 35 36 36 36 37 37 38 39 40 43 46 47 48 48 47 46 45 43 42 41 40 39 39 39 40 40 40 40 40 40 39 39 38 36 34 33
26 27 29 32 34 35 36 36 36 37 37 37 38 39 41 44 46 48 49 49 48 46 45 44 42 41 40 40 41 41 42 41 41 42 41 41 41 41 38 35 34 35
27 27 29 32 34 35 35 36 36 37 37 38 39 40 42 45 47 49 50 49 48 47 45 44 42 42 42 42 43 43 43 43 43 42 41 42 42 41 38 35 35 36
29 28 29 31 33 34 35 36 37 38 39 39 41 42 43 45 47 49 50 50 49 47 45 44 43 43 44 44 44 44 44 45 44 42 42 43 43 42 38 36 37 37
31 30 30 31 32 34 35 36 37 38 39 40 42 42 44 45 48 49 50 49 49 47 46 46 45 45 45 45 46 46 46 45 44 42 43 44 44 43 40 38 37 37
31 31 31 31 32 34 36 37 38 39 39 39 41 42 42 44 46 48 49 49 49 49 48 48 47 46 47 47 48 48 47 46 43 43 44 46 46 45 41 38 37 38
32 32 32 32 33 34 36 37 38 39 38 37 37 38 40 43 45 47 49 50 50 50 50 49 48 48 49 49 50 49 48 45 43 45 47 48 48 46 41 38 37 39
32 32 33 33 34 35 37 38 38 38 38 37 37 37 39 42 44 47 49 50 51 50 49 48 48 48 49 50 50 49 47 45 46 47 49 50 49 45 40 37 38 40
33 34 34 35 35 36 38 39 39 39 39 38 37 37 39 41 44 46 49 50 50 50 48 48 48 47 49 50 51 50 48 48 48 49 50 51 48 44 40 39 39 41
34 35 36 36 37 37 38 40 40 39 37 36 36 37 38 40 42 44 46 48 49 49 48 48 47 47 50 52 52 52 51 51 51 51 51 51 48 44 42 41 41 43
36 36 37 38 39 39 39 39 38 38 37 35 34 34 35 36 37 39 42 44 46 47 48 48 49 51 54 54 54 54 54 53 51 50 51 51 48 45 43 42 42 44
36 37 37 38 39 39 38 37 37 38 37 35 34 34 34 35 36 38 40 41 43 45 47 50 53 56 56 55 56 56 54 52 50 51 51 50 47 43 42 42 43 43
35 35 35 36 37 37 37 37 37 37 37 37 37 37 36 36 37 38 39 40 41 43 46 50 53 54 54 54 54 53 51 49 49 49 48 45 42 40 40 41 41 41
30 30 31 32 33 33 33 34 34 34 34 35 35 35 35 35 36 38 40 40 40 41 42 45 46 47 47 47 47 46 45 45 44 43 41 39 38 38 39 40 40 40

ECMWFNIL_700_spd_069.txt.gz
Wind_Speed
29 31 31 31 32 33 33 35 38 40 42 43 43 42 42 40 40 39 39 38 39 39 40 40 40 40 40 41 43 44 44 43 42 42 43 44 43 42 42 42 41 40
29 30 30 30 31 32 32 34 36 39 40 42 43 42 42 42 41 40 39 39 39 40 40 40 40 41 41 41 43 44 45 45 43 42 43 45 45 44 44 43 42 41
28 29 28 28 30 31 32 34 35 37 39 40 41 42 43 42 42 41 40 40 40 40 40 39 39 40 41 42 43 44 46 45 43 42 44 47 46 45 45 45 44 43
27 28 28 28 29 30 31 33 34 36 37 39 40 41 42 42 42 42 41 41 41 40 39 39 39 41 41 41 42 44 45 45 43 43 46 48 48 47 47 46 45 44
27 28 28 28 29 30 31 32 32 34 36 37 39 40 41 41 42 41 41 42 42 40 39 39 40 41 41 41 42 44 45 45 44 44 47 49 49 48 48 47 46 46
28 28 28 29 30 30 31 31 31 32 34 35 37 38 39 40 41 41 42 43 42 41 40 40 41 41 41 41 42 44 45 44 44 45 48 50 50 49 49 48 48 46
29 29 29 29 30 30 31 31 32 32 32 33 35 36 37 39 40 41 41 42 42 42 41 40 41 41 40 41 42 43 44 44 45 46 48 50 50 50 49 49 48 47
30 31 31 31 30 30 30 31 32 32 33 33 33 34 36 37 39 40 41 41 41 42 41 40 40 40 40 40 42 43 44 44 45 47 49 51 51 50 50 49 48 47
32 32 32 32 31 31 31 30 31 32 33 33 33 34 35 36 37 39 40 41 41 41 40 39 39 39 40 41 42 43 43 44 46 47 49 51 51 51 50 49 48 48
34 34 33 33 32 32 32 32 32 32 32 33 34 34 35 35 37 38 39 39 39 39 39 38 38 39 40 41 42 43 43 45 46 47 49 51 52 51 50 50 49 49
35 35 35 34 33 32 33 33 33 33 33 34 34 35 35 36 36 37 37 37 37 38 39 38 38 39 39 40 41 41 42 44 46 47 50 52 52 52 51 51 51 50
35 35 35 35 34 34 34 34 34 34 34 35 35 35 36 36 36 36 36 36 36 37 38 38 39 39 39 39 39 40 42 45 47 48 51 53 53 52 52 52 52 52
35 35 34 35 35 35 35 35 35 35 34 34 35 36 36 36 37 36 36 35 35 37 38 38 39 39 38 37 38 41 44 47 48 49 51 53 53 53 53 53 53 53
37 35 35 35 35 36 36 35 35 35 35 35 35 36 36 37 37 36 36 36 36 37 38 38 39 39 38 38 39 42 46 48 49 50 52 53 53 53 53 53 54 54
39 37 36 35 35 35 35 35 34 34 35 36 36 36 36 36 37 37 36 36 36 38 38 38 38 39 39 39 39 41 44 47 49 51 52 52 53 53 53 54 55 55
41 39 37 36 36 35 36 35 34 34 34 35 36 37 36 37 37 37 37 37 37 38 38 38 38 39 40 39 38 39 41 45 48 51 51 51 52 53 54 55 55 55
42 40 38 38 37 36 36 36 35 34 34 35 36 36 37 37 37 37 37 37 38 39 39 39 39 39 39 39 38 38 40 44 47 50 51 51 52 53 54 54 55 55
44 42 40 39 38 37 37 37 37 36 35 35 36 36 37 38 37 37 38 38 39 39 39 38 39 39 38 38 38 38 39 43 46 49 50 50 51 52 53 54 54 54
44 43 41 40 39 39 39 39 38 37 36 35 36 37 37 38 38 38 38 38 39 39 38 39 39 38 37 37 36 35 37 42 46 49 50 49 49 50 52 53 53 53
44 43 41 41 41 41 40 40 39 38 38 37 37 37 37 38 39 39 39 38 39 39 39 39 38 38 38 35 33 32 35 41 47 49 50 49 50 51 52 53 54 55
42 42 42 42 42 42 42 41 40 39 39 38 38 38 38 39 39 40 40 39 39 40 39 38 38 39 39 36 33 34 36 41 47 51 52 52 53 54 54 55 56 56
42 42 43 43 42 42 42 41 40 40 40 39 39 38 38 39 39 40 40 39 40 39 39 38 37 38 39 38 36 38 39 41 46 52 54 55 56 56 56 56 55 54
42 42 42 41 41 41 41 40 40 40 40 40 40 39 39 39 39 40 40 40 40 39 38 38 36 37 39 39 37 38 39 41 45 51 55 56 57 57 57 56 54 53
41 41 41 40 40 40 41 40 40 40 40 40 39 39 38 38 38 39 39 39 39 38 37 36 36 37 37 36 35 36 38 40 44 49 54 56 57 57 56 54 53 52
40 40 39 39 39 39 40 40 40 40 40 39 38 38 37 37 37 37 37 37 36 35 35 34 34 34 33 32 32 34 35 38 42 47 52 54 55 55 55 54 52 51
38 38 37 38 38 38 38 39 39 39 39 38 37 36 36 35 35 34 33 32 31 30 30 30 31 31 31 32 32 33 34 36 39 43 48 51 52 52 52 50 48 44

ECMWFNIL_700_spd_072.txt.gz
Wind_Speed
28 29 29 30 31 31 31 31 31 32 33 35 35 35 36 38 39 40 41 42 42 41 41 40 40 39 39 40 40 40 40 39 39 41 42 41 42 42 39 36 36 37
28 29 29 29 30 30 30 30 31 31 33 34 35 34 35 36 37 38 39 41 42 41 42 41 41 41 40 40 40 40 40 40 39 42 42 39 41 43 38 39 44 44
28 29 29 29 29 29 29 30 30 30 32 33 34 34 34 34 35 37 38 39 41 41 42 42 41 42 41 41 40 40 40 41 39 41 41 37 42 47 42 42 49 51
28 29 29 28 28 28 28 29 29 30 30 31 32 33 33 34 35 36 37 38 39 40 41 42 42 42 42 42 41 40 41 41 39 39 39 38 42 46 45 44 50 52
27 29 30 29 29 29 29 29 29 29 29 29 30 31 32 34 35 35 36 37 38 39 40 41 42 42 43 42 41 41 41 41 40 38 40 41 42 45 44 44 49 50
26 28 30 31 31 31 30 30 30 30 30 29 29 29 30 32 33 34 35 35 36 38 39 40 42 42 43 43 41 41 42 41 41 40 41 42 43 44 45 47 52 50
29 30 31 32 32 33 32 32 31 31 31 31 31 30 30 31 32 33 33 34 35 36 38 39 40 41 42 43 42 42 43 42 41 41 41 41 40 41 44 51 55 49
33 34 34 33 32 33 33 34 33 32 32 32 32 32 32 32 33 33 33 34 34 35 36 37 38 39 41 42 43 43 43 42 41 41 40 39 38 40 45 52 53 46
35 38 38 37 35 34 33 33 34 33 32 32 32 33 33 33 33 33 34 35 35 35 35 36 37 38 39 41 41 42 42 41 40 39 38 37 38 41 45 48 47 45
38 40 41 41 39 38 35 32 32 32 32 32 33 33 33 33 33 33 34 35 36 36 36 36 37 38 39 40 40 41 40 39 38 38 37 37 38 40 43 44 45 47
42 43 43 43 42 41 39 34 32 31 31 32 32 33 33 32 32 32 33 34 35 36 36 36 37 37 38 39 40 39 38 37 37 38 37 37 38 40 43 44 45 48
46 46 45 44 44 44 42 37 33 31 31 31 31 32 32 32 32 32 32 32 33 34 36 36 37 37 37 37 37 37 37 36 36 37 36 36 38 39 41 43 45 48
49 49 48 46 46 46 44 40 36 33 31 31 31 31 31 31 31 31 32 32 33 34 35 36 37 37 36 35 35 36 36 36 36 34 34 35 36 38 40 42 45 48
50 50 49 48 47 48 45 42 39 36 33 32 31 31 31 31 31 31 32 33 33 34 34 35 36 36 35 34 34 35 36 37 35 32 31 33 35 38 41 43 45 48
52 52 51 49 49 49 46 44 41 38 35 33 32 32 32 32 32 32 32 33 33 34 34 35 35 35 35 34 34 35 35 36 35 31 31 34 36 38 41 44 47 49
54 53 52 51 51 50 46 44 43 40 37 34 33 33 32 32 32 33 33 34 34 34 34 35 34 34 35 35 35 35 33 34 36 35 32 34 36 39 42 45 47 48
57 56 54 53 52 50 46 44 43 41 38 35 34 33 33 33 34 34 34 35 35 35 35 35 34 34 35 35 36 35 32 33 37 38 36 36 37 40 43 46 47 46
58 57 55 53 52 49 46 44 44 42 39 36 35 34 34 34 35 36 36 36 36 36 36 36 35 35 35 36 36 34 32 34 38 40 39 40 40 41 43 46 46 45
56 56 54 53 50 48 46 45 45 43 40 37 36 36 35 36 36 37 37 37 37 37 37 37 37 36 36 36 36 34 33 34 38 40 41 41 41 41 43 45 46 44
51 52 51 50 49 47 46 45 45 43 41 39 38 38 37 37 37 37 38 37 38 38 38 38 38 38 37 36 35 34 34 35 37 38 39 39 38 39 41 45 46 43
48 48 48 48 47 46 45 44 44 43 42 41 40 39 39 38 38 38 38 38 38 39 39 38 38 37 37 36 35 35 36 37 37 37 36 34 34 37 40 44 45 43
46 46 46 46 46 45 44 44 44 44 43 42 41 40 40 39 39 39 38 39 39 39 39 39 38 37 37 36 36 37 38 37 36 35 35 34 34 37 41 44 45 45
43 43 44 45 44 44 44 44 44 44 44 43 42 41 41 40 39 39 39 39 39 39 39 39 38 37 37 37 37 37 36 35 35 36 37 37 37 39 42 44 46 46
41 42 43 42 42 42 42 42 43 44 44 43 43 42 41 40 40 40 39 39 38 38 38 37 37 37 36 37 37 35 34 34 35 37 39 40 39 39 42 44 46 47
39 39 39 39 40 41 42 43 43 44 44 43 43 42 41 40 40 39 39 38 38 38 37 36 35 34 34 34 34 32 32 32 34 36 38 39 39 40 42 44 46 47
38 39 40 41 42 43 43 44 44 44 43 42 42 41 40 39 38 38 38 38 37 36 34 33 32 30 29 29 29 29 29 30 32 34 36 37 39 40 41 42 44 45

ECMWFNIL_700_spd_075.txt.gz
Wind_Speed
20 21 21 21 21 21 22 24 25 26 28 29 30 31 32 32 33 33 33 33 34 35 35 36 37 38 39 40 41 41 41 39 37 38 40 42 42 43 45 43 40 41
20 20 20 21 21 22 23 24 25 26 26 27 29 30 31 32 33 33 33 33 33 34 34 35 36 38 39 40 41 41 41 40 39 40 41 42 42 43 43 40 39 42
19 20 20 20 21 21 23 24 26 27 27 27 28 28 30 30 31 32 32 33 33 33 34 35 35 37 38 39 40 41 41 41 41 41 42 43 43 43 41 40 43 45
18 19 19 20 20 21 23 24 26 27 28 29 29 29 29 30 30 30 31 32 33 33 34 35 35 36 37 38 39 40 41 42 42 43 44 44 42 42 43 44 45 46
18 19 20 21 23 23 24 25 25 26 28 29 30 31 31 31 30 30 30 31 32 33 33 34 35 36 36 37 39 41 41 42 43 45 45 42 41 44 46 47 46 44
18 19 20 22 23 24 25 26 27 28 29 30 31 31 32 32 31 30 30 31 32 32 32 33 34 34 35 37 40 41 41 42 43 45 43 40 43 47 48 47 45 43
20 20 21 23 24 26 28 29 30 31 32 33 33 32 32 32 31 30 30 31 31 31 31 32 33 33 34 36 38 40 40 41 43 44 42 40 43 47 47 46 45 44
25 26 28 29 30 31 31 32 33 34 36 37 35 34 32 32 31 30 31 31 31 31 30 31 32 33 34 35 36 38 39 40 42 41 40 42 45 47 48 48 46 44
32 34 35 36 36 35 35 35 36 38 40 41 39 36 33 32 31 30 30 30 30 30 30 30 31 31 32 33 35 36 37 38 40 39 40 45 48 48 48 47 45 42
37 39 40 40 40 40 39 39 41 42 44 44 41 38 34 32 32 31 30 29 29 29 29 29 29 30 31 32 33 34 35 37 38 38 41 45 46 46 46 44 41 39
42 43 43 43 44 44 43 43 45 46 46 46 43 40 37 34 32 31 31 30 29 28 28 29 29 29 30 30 31 33 34 36 37 38 40 42 43 45 44 40 37 36
45 46 46 47 47 47 47 48 49 49 49 47 44 41 39 36 32 31 31 30 29 29 28 28 29 29 29 30 30 32 33 35 36 37 39 41 44 45 42 38 36 35
48 49 50 51 51 50 51 51 51 51 50 49 46 43 41 38 34 32 31 31 30 29 29 29 29 29 29 29 30 31 33 34 35 37 39 41 41 41 39 38 36 33
49 51 53 53 53 53 53 53 53 52 51 50 47 45 42 40 36 33 32 31 30 30 30 30 30 30 30 30 31 31 32 34 35 36 37 37 36 38 40 38 34 32
48 51 54 55 55 55 55 55 54 53 52 50 47 45 43 40 38 36 34 32 31 31 31 31 31 31 32 32 32 32 33 34 35 36 35 34 35 38 41 37 31 31
48 51 54 56 57 57 57 57 56 54 51 49 47 45 42 41 39 37 35 33 32 32 32 32 32 32 33 34 34 34 34 35 35 36 34 34 35 37 38 35 32 32
48 53 56 58 59 60 59 58 55 52 50 47 46 44 42 41 40 38 36 34 33 33 33 33 34 34 35 35 35 35 36 36 35 35 34 36 38 37 36 36 35 34
54 57 59 59 58 58 56 54 51 49 48 46 45 44 42 41 41 39 37 35 35 35 35 35 35 36 36 36 36 36 37 36 35 34 34 36 38 36 34 36 39 38
54 56 55 53 52 50 49 48 47 47 46 46 45 44 43 42 41 39 37 36 36 36 36 36 36 37 37 36 37 37 37 37 36 35 35 35 35 33 32 36 40 41
45 46 45 44 43 43 43 44 45 45 45 45 45 45 43 42 41 40 38 37 37 37 37 36 36 37 37 37 37 37 37 37 37 36 35 34 33 31 33 37 40 40
37 38 38 39 39 40 41 42 43 43 43 44 44 44 44 43 42 41 39 38 38 37 37 37 37 38 38 37 37 37 37 37 38 37 35 33 31 31 33 36 39 40
36 37 38 38 39 39 40 40 40 41 42 42 43 43 43 43 42 40 40 39 39 39 39 38 38 38 38 38 38 37 37 37 38 37 35 32 30 31 33 36 39 41
38 38 38 38 38 38 38 38 39 40 40 41 42 42 42 41 41 40 41 41 41 40 39 39 38 38 38 38 37 37 37 37 37 35 33 31 31 33 36 39 40 41
36 36 35 35 36 36 37 37 38 38 39 40 40 41 41 41 41 41 42 42 42 41 40 39 38 37 37 37 37 37 37 37 36 34 32 31 33 36 38 40 40 41
36 36 37 37 37 37 37 38 38 39 40 41 42 42 43 43 43 42 42 42 42 41 39 38 37 36 36 36 37 37 37 37 35 34 33 32 34 36 38 39 41 41
39 39 40 40 40 40 40 41 41 42 43 44 44 45 45 44 43 42 42 41 41 40 38 37 36 36 36 36 37 36 36 35 34 33 34 36 37 37 37 37 38 38

ECMWFNIL_700_spd_078.txt.gz
Wind_Speed
18 18 17 17 18 18 19 18 18 17 17 18 19 20 21 22 24 26 28 30 31 30 30 31 32 34 35 37 38 39 39 38 35 39 47 47 44 44 44 40 36 36
20 19 18 18 18 18 18 18 17 16 16 17 18 19 20 22 24 26 28 29 31 31 30 31 30 31 33 35 37 38 39 38 37 40 46 46 44 45 44 40 37 40
21 20 19 19 18 18 18 18 17 18 17 17 17 18 20 21 23 25 27 29 31 31 32 31 31 31 31 33 34 36 37 38 38 39 42 43 44 44 41 36 36 41
22 21 20 20 19 19 19 19 19 19 18 18 19 20 21 23 25 26 28 29 30 31 32 32 32 31 31 32 33 34 35 36 36 37 40 42 42 39 34 33 38 44
22 22 21 20 20 21 21 22 21 20 20 22 23 24 25 26 27 29 29 30 31 31 32 33 33 32 32 32 33 34 35 35 35 37 39 40 38 35 34 37 44 49
23 23 22 22 22 23 23 23 23 24 26 28 29 29 29 30 31 31 31 31 31 31 32 32 33 33 33 32 33 33 33 34 35 36 39 37 34 35 40 46 50 50
24 25 25 24 25 25 25 26 28 30 31 33 33 34 34 34 34 33 33 33 32 31 31 32 32 32 32 32 32 32 32 33 34 36 37 35 34 40 46 50 53 52
27 27 27 27 27 27 29 32 34 35 36 37 38 37 37 37 36 35 36 35 32 31 31 31 32 32 32 32 32 32 31 31 32 34 35 34 36 43 47 50 52 52
30 30 30 30 30 31 34 37 39 40 41 41 41 40 40 39 38 39 39 37 33 30 30 31 31 32 32 32 32 31 31 31 31 32 33 34 36 40 44 46 47 47
33 33 34 34 34 36 39 42 43 44 44 44 44 44 43 42 43 43 42 39 34 31 29 30 31 32 32 32 31 31 31 31 30 31 32 33 35 38 41 43 44 44
36 36 37 38 39 41 44 45 46 46 47 48 48 48 47 46 46 46 44 40 35 32 30 30 31 32 32 32 31 31 30 30 30 30 31 32 34 36 38 40 41 41
38 39 40 40 42 44 46 46 47 48 50 50 51 51 50 49 49 48 45 40 36 33 31 30 31 32 33 32 32 31 31 30 30 30 30 32 33 34 35 37 39 39
39 40 40 41 42 45 46 47 48 50 51 52 52 53 52 51 51 50 46 41 37 35 32 31 32 32 32 33 32 32 31 31 31 31 31 32 33 34 35 36 38 39
42 41 41 40 41 44 46 48 50 51 53 54 54 55 54 54 53 51 47 41 37 35 34 33 33 32 33 33 33 33 32 32 32 33 33 33 33 34 34 36 37 38
45 45 45 44 45 46 48 51 53 55 56 57 57 58 57 56 55 52 46 41 37 36 35 35 34 33 33 34 34 34 34 34 34 35 35 35 35 34 35 36 37 37
48 49 50 50 50 50 52 54 56 57 58 59 60 60 60 59 57 52 45 40 38 37 36 36 36 35 35 35 35 35 36 36 36 36 37 36 36 36 36 36 36 36
48 51 53 54 55 54 54 54 56 57 59 60 61 61 60 59 55 50 44 40 38 38 38 38 37 36 36 36 37 37 37 38 38 38 38 38 37 37 37 37 36 36
40 44 47 50 53 54 54 55 56 58 58 58 57 55 54 53 50 46 43 41 39 39 38 39 39 38 38 38 39 39 39 40 39 39 39 39 39 38 38 38 37 35
35 37 39 41 45 47 50 51 52 52 51 50 49 48 47 47 45 44 43 42 41 40 40 40 40 39 39 39 40 40 40 41 40 40 40 40 40 40 39 38 37 35
37 38 39 39 41 43 44 45 46 45 45 45 45 45 45 44 44 44 44 43 43 42 41 41 40 40 39 40 40 40 40 41 40 40 41 41 41 40 39 39 38 36
38 40 41 42 43 43 44 44 44 43 43 44 44 44 44 44 44 44 44 44 43 42 42 42 41 41 40 40 40 40 40 40 40 40 40 40 40 40 39 38 38 37
40 41 42 43 44 45 46 46 45 45 45 44 44 44 44 44 44 44 43 44 44 43 43 42 42 41 41 41 41 41 41 41 41 40 39 39 39 38 38 38 37 37
42 42 43 44 45 45 45 45 44 44 43 43 43 42 43 43 43 43 44 44 44 43 43 43 43 43 43 43 43 42 42 42 41 40 39 38 38 37 38 38 38 37
41 43 44 45 45 45 44 43 43 42 42 42 43 43 43 44 44 45 45 45 45 45 45 45 46 46 46 46 45 44 44 42 41 40 39 38 38 38 38 38 38 36
41 42 44 45 45 44 44 43 43 43 43 44 44 45 45 46 46 47 47 47 47 47 47 48 48 47 47 46 46 45 44 43 41 40 39 38 38 38 38 38 38 35
41 42 43 44 44 44 44 44 43 43 44 45 45 46 46 47 47 48 48 49 49 48 48 47 47 47 46 45 45 44 43 41 40 39 38 38 39 39 38 38 38 37

ECMWFNIL_700_spd_084.txt.gz
Wind_Speed
22 23 24 24 24 24 25 25 25 25 26 27 28 29 29 30 29 28 27 25 23 22 20 18 19 20 23 25 27 29 30 30 32 33 36 39 39 41 43 43 44 45
23 24 25 26 26 27 27 27 27 28 28 28 29 29 30 29 29 28 26 24 23 22 21 21 22 24 26 28 29 30 30 31 33 34 37 38 38 40 42 43 44 45
25 26 27 27 28 29 29 30 29 29 29 29 29 30 30 30 29 28 26 25 24 23 23 24 26 28 30 31 32 32 31 32 33 35 37 38 38 40 42 43 43 44
28 29 29 30 30 31 31 31 30 29 28 28 30 31 31 31 30 29 27 27 27 26 27 28 30 32 34 34 35 35 34 34 34 35 37 37 38 39 41 42 43 43
32 32 32 33 33 33 32 31 30 29 29 29 31 32 32 32 31 30 29 29 29 30 30 32 34 36 37 38 39 38 37 36 36 37 38 37 37 39 39 41 41 42
35 35 35 36 35 35 34 33 32 31 29 29 31 32 33 33 32 31 31 31 32 33 34 36 38 39 41 42 41 40 39 39 39 40 40 39 38 39 39 40 40 40
35 36 36 36 36 36 36 35 34 32 30 30 32 32 33 33 33 32 33 34 36 37 38 40 42 43 43 43 43 43 43 43 44 44 43 42 40 40 40 40 40 40
33 34 35 35 36 37 37 36 34 32 31 32 33 34 34 35 35 35 36 38 40 41 43 44 45 45 45 45 46 46 47 47 47 47 46 44 42 41 41 41 41 41
31 32 33 34 35 36 36 34 32 31 32 34 35 36 37 37 38 38 40 42 44 45 46 46 46 46 47 48 48 49 50 51 50 50 48 47 45 43 41 42 43 42
31 32 33 34 35 35 35 33 31 31 33 35 37 39 40 40 40 41 43 46 47 48 48 48 48 49 49 50 51 52 53 53 53 52 50 49 48 45 42 43 44 43
32 33 34 35 35 34 33 32 31 32 33 36 38 40 42 42 43 44 47 49 50 50 50 51 51 51 52 52 53 54 55 55 55 54 52 51 50 47 43 43 44 44
33 34 35 35 34 31 30 30 30 31 34 37 39 41 43 44 45 47 49 51 52 53 53 54 54 55 55 55 55 56 57 57 57 55 54 52 50 48 45 44 44 45
34 35 35 33 31 30 29 29 29 30 32 35 38 41 43 45 47 49 50 52 53 54 55 56 57 57 57 57 57 57 58 58 58 56 55 53 50 48 46 45 45 45
35 35 34 32 30 29 29 29 30 31 32 34 36 39 42 44 47 49 50 52 53 54 54 55 56 57 58 58 58 59 59 59 58 57 56 54 50 47 47 47 46 46
35 35 34 33 32 31 31 31 31 31 32 33 35 36 38 40 42 44 46 47 48 49 50 51 52 53 54 55 56 57 58 58 58 57 56 54 51 48 47 47 48 48
36 36 36 36 35 35 34 34 33 33 33 34 35 36 37 39 40 41 42 43 45 46 47 48 49 49 50 51 53 54 55 56 56 56 55 53 52 50 48 47 47 48
38 38 39 39 39 39 38 38 37 37 37 37 38 38 39 41 42 43 44 45 46 47 48 49 49 49 49 50 51 52 53 54 54 54 53 53 52 51 48 47 47 47
38 39 40 40 41 41 42 42 41 41 41 41 41 42 43 44 45 46 47 48 49 50 50 51 51 51 50 50 50 51 51 52 52 52 52 52 51 49 48 46 46 46
39 40 40 41 41 42 43 44 44 44 45 45 45 46 46 47 48 49 50 51 52 52 52 52 52 50 49 49 49 49 49 50 50 50 50 50 49 48 48 47 46 45
40 41 42 42 43 44 44 45 46 47 48 49 49 50 51 51 52 52 53 53 53 53 53 53 51 48 47 47 47 48 49 50 50 50 49 49 49 48 48 47 47 47
42 43 44 45 46 46 47 48 49 50 51 52 53 53 54 55 55 54 54 54 53 53 53 52 50 47 47 46 47 47 48 49 50 50 50 50 50 50 49 49 49 49
44 45 46 47 48 49 49 50 50 51 51 52 53 53 53 54 54 54 54 53 52 52 52 51 50 48 47 47 47 47 48 49 50 50 51 51 51 51 51 51 51 51
44 45 46 47 47 47 48 48 48 48 48 48 49 49 49 49 50 51 52 52 52 52 52 52 51 50 50 50 50 50 51 52 53 53 53 54 53 53 53 53 53 53
44 44 44 44 44 44 44 43 43 43 42 43 43 44 44 44 44 46 47 48 49 50 51 52 52 52 52 53 53 53 54 55 55 56 56 56 56 55 55 55 55 54
42 42 43 43 42 42 42 42 42 42 42 42 42 42 42 42 42 42 43 43 45 46 47 48 49 50 50 51 52 52 53 54 54 55 56 56 56 56 56 56 56 55
44 45 45 45 46 46 46 46 46 46 46 46 46 46 46 45 45 44 44 43 43 44 44 45 46 47 48 49 50 50 51 51 52 52 53 54 55 55 55 55 55 55

ECMWFNIL_700_spd_087.txt.gz
Wind_Speed
19 19 20 21 22 24 25 26 27 27 27 28 28 28 29 29 29 30 31 31 32 32 31 30 29 28 27 25 24 24 24 26 28 29 30 32 32 32 33 34 34 34
19 20 22 24 26 27 29 30 30 30 29 29 30 30 30 30 30 30 31 31 32 32 31 29 28 28 27 26 26 27 28 30 31 32 34 35 36 36 37 37 37 37
20 22 24 25 27 29 30 31 31 31 31 30 30 31 31 31 31 31 30 31 31 31 30 30 29 28 28 28 29 30 31 33 34 35 38 38 38 39 40 40 40 39
25 27 28 28 29 30 31 32 32 32 32 31 31 32 32 32 32 31 31 31 31 31 30 30 29 29 29 30 32 33 34 36 37 38 41 41 41 42 42 43 43 42
30 32 33 32 32 32 32 33 33 34 34 33 33 33 33 33 33 32 31 31 31 31 31 31 31 31 31 33 35 36 37 38 39 41 44 44 44 44 45 45 45 45
33 36 37 37 36 35 34 34 34 35 35 34 34 34 34 34 33 32 32 32 33 33 33 33 33 34 35 36 38 39 40 41 43 45 47 47 47 47 47 47 47 47
37 39 39 38 38 37 36 36 35 35 35 35 35 35 35 34 33 32 32 33 34 35 35 35 36 37 38 40 42 42 43 45 47 49 50 50 50 50 49 49 49 49
41 42 42 40 39 38 38 38 37 37 37 36 36 36 35 34 32 32 33 34 36 37 37 38 39 40 41 43 44 45 46 47 49 51 52 52 52 52 52 52 52 53
44 43 42 41 40 39 39 38 38 37 37 37 36 36 35 34 33 33 34 36 37 39 40 40 41 42 44 45 46 46 48 49 51 53 54 54 54 54 54 55 55 55
42 41 40 40 39 38 37 36 37 37 36 36 35 34 34 34 35 35 36 38 39 40 42 43 44 45 46 47 47 48 49 51 52 54 55 56 56 57 57 57 58 57
38 37 37 37 36 35 35 35 35 35 35 34 33 32 32 33 35 36 38 40 41 43 44 45 47 48 49 50 49 50 51 53 55 56 57 58 58 59 59 59 59 58
34 34 34 35 35 34 34 34 34 33 33 33 32 32 32 32 34 36 38 40 42 44 46 48 49 50 52 52 53 53 55 56 57 58 59 59 59 58 58 58 57 57
33 33 34 34 34 35 34 34 34 33 33 32 32 33 33 33 34 35 37 39 41 43 45 47 48 50 51 52 53 54 55 55 56 56 55 55 54 54 54 54 54 54
33 33 34 34 35 35 35 35 35 35 35 34 34 34 34 34 34 35 35 36 38 39 41 42 43 44 45 46 48 48 49 50 50 51 51 52 52 52 53 53 53 53
34 34 34 35 35 35 36 36 37 37 37 37 37 37 36 36 36 36 36 37 38 39 40 41 42 43 44 45 46 47 48 49 50 51 52 53 54 55 55 55 54 53
35 36 36 36 37 37 38 39 39 40 40 41 41 41 41 41 40 40 41 41 42 42 43 44 45 46 47 47 48 49 50 51 52 53 54 55 56 56 56 55 53 52
36 37 38 39 40 40 41 42 42 43 44 44 44 44 45 45 45 45 46 46 47 47 48 49 49 50 51 51 52 52 52 53 54 54 55 55 55 55 55 54 53 51
36 38 39 40 41 42 43 44 44 45 46 46 46 47 47 48 48 49 50 50 51 52 52 53 53 54 54 54 54 54 54 55 56 56 55 55 54 54 53 53 52 51
37 38 39 40 42 43 44 45 45 46 47 47 48 48 49 50 50 51 52 53 54 54 55 56 56 55 56 56 56 55 55 55 56 56 56 55 54 53 52 52 51 51
37 39 40 41 42 43 44 45 46 47 47 48 49 49 50 50 51 51 52 52 53 54 55 55 54 54 54 54 54 53 53 54 54 55 55 54 54 53 53 53 52 53
38 39 40 41 42 43 44 45 46 47 48 49 50 50 51 51 51 51 51 50 50 50 51 51 50 49 49 49 49 49 50 51 51 52 52 53 53 52 51 51 51 51
39 41 42 43 44 45 46 47 48 48 48 49 49 49 49 49 48 48 48 47 46 46 47 47 47 47 48 48 48 48 48 49 49 50 50 51 51 50 49 48 48 49
41 43 44 45 45 45 46 46 46 46 45 46 46 45 45 45 46 45 46 46 46 46 47 48 48 49 50 51 51 52 52 51 51 51 51 51 50 50 49 49 49 48
42 42 43 43 43 43 44 44 44 44 45 45 46 47 47 47 48 48 48 49 49 50 51 51 51 51 53 54 54 56 56 56 56 55 54 53 53 52 51 51 51 50
41 41 42 43 44 44 45 46 47 48 48 49 50 51 52 52 53 54 53 54 54 54 55 55 55 55 55 57 57 58 59 60 60 60 59 58 58 57 56 55 55 54
42 42 43 44 45 47 48 49 50 51 52 53 54 55 56 56 57 57 58 57 57 56 56 56 55 55 56 57 58 60 61 62 63 63 63 62 62 61 60 60 59 58

ECMWFNIL_700_spd_093.txt.gz
Wind_Speed
12 12 13 14 15 16 17 18 19 20 22 23 25 26 28 30 32 33 34 35 36 36 37 38 39 39 39 39 39 39 39 39 38 37 37 37 37 37 37 36 35 35
13 14 15 16 17 19 20 21 22 24 26 27 29 31 32 34 36 37 38 38 38 38 38 39 39 40 40 39 39 40 40 39 39 38 38 37 36 37 37 36 35 35
16 17 18 19 20 21 22 24 26 28 29 31 32 34 36 38 39 40 40 40 39 39 39 39 39 39 39 39 39 39 39 39 39 38 38 37 37 37 37 35 35 36
19 20 21 22 23 25 26 28 30 31 32 34 35 37 39 41 42 41 40 40 39 39 38 38 38 37 38 37 38 38 38 38 38 38 38 37 37 37 37 37 37 39
21 22 24 25 27 28 30 31 33 34 35 37 39 41 43 43 43 42 41 39 38 37 36 35 35 35 35 35 36 36 37 38 38 38 38 37 37 38 38 39 40 42
23 25 26 28 29 31 33 35 36 38 39 41 43 44 44 44 43 41 40 38 37 36 35 34 34 33 34 34 34 35 36 37 37 37 38 38 38 39 40 42 43 45
25 26 28 30 32 34 37 38 39 40 42 42 43 43 42 42 40 39 39 38 37 36 35 34 34 33 33 33 34 34 35 36 36 37 38 39 40 41 42 44 46 48
26 28 30 33 36 37 39 40 40 41 41 42 41 41 40 39 39 38 38 37 36 35 35 34 34 34 34 34 35 35 36 36 36 37 38 39 40 41 42 45 47 49
29 30 32 36 39 39 40 41 41 41 40 40 39 39 38 38 37 36 36 35 35 35 34 34 35 35 35 36 36 36 37 37 38 39 39 40 40 41 42 43 45 47
33 34 35 38 41 42 42 41 40 39 38 38 37 37 36 36 35 35 35 34 34 35 35 35 35 36 36 37 38 38 39 39 40 41 41 42 43 43 44 44 46 47
37 38 38 40 42 43 43 41 39 38 37 36 36 35 35 35 35 35 35 35 35 36 36 37 37 38 38 38 39 40 40 41 41 42 43 44 45 46 46 47 49 50
40 40 40 42 43 44 43 40 39 37 36 35 35 35 35 35 35 35 36 36 37 37 38 38 39 39 40 41 41 42 42 43 43 44 44 45 45 46 47 48 49 50
41 41 41 43 44 43 42 40 38 36 36 35 35 35 35 35 36 36 37 37 38 39 39 40 41 41 42 44 44 45 46 47 47 47 47 48 48 48 49 49 49 50
41 42 43 43 43 42 40 38 37 36 36 35 35 36 36 36 37 37 38 39 40 40 41 42 43 44 45 46 47 48 49 50 51 50 50 50 50 50 50 50 50 50
42 43 43 42 41 40 38 37 37 36 36 36 36 36 37 37 38 39 40 41 42 43 44 45 46 47 48 49 50 51 52 53 53 52 52 52 51 51 50 50 50 50
43 43 42 41 40 39 38 37 37 37 36 36 37 37 38 39 40 41 42 43 44 45 46 47 48 49 50 50 51 52 53 54 54 53 52 52 52 52 52 51 51 51
44 43 41 40 38 38 37 37 37 37 36 37 37 38 39 40 41 43 44 45 47 47 48 48 47 47 48 49 49 50 51 53 54 53 53 53 53 54 54 54 55 55
43 41 39 38 37 37 36 36 36 37 37 38 39 40 41 43 44 45 46 47 47 48 48 47 45 45 46 47 48 49 51 52 53 54 55 55 56 56 57 58 58 59
41 40 38 37 37 36 36 37 37 38 40 41 42 43 44 45 46 46 46 46 46 46 46 46 45 45 46 48 50 51 53 55 55 56 57 58 58 59 59 60 61 61
39 38 37 37 37 37 38 39 40 41 42 43 45 45 46 46 45 45 45 45 45 46 46 47 47 49 49 51 52 54 55 57 58 59 59 59 60 61 61 61 62 63
38 37 37 37 38 38 39 40 42 43 44 45 45 45 45 45 44 44 45 45 46 48 49 50 51 52 53 54 55 56 58 59 60 61 61 62 62 62 62 63 63 63
37 37 37 38 39 40 41 42 43 43 43 44 44 43 44 44 44 45 46 47 49 50 52 53 53 54 55 56 57 58 60 61 62 63 63 64 64 64 64 65 65 65
37 37 38 39 41 42 42 42 42 42 42 43 43 44 45 45 46 48 49 50 51 53 54 56 56 57 58 58 59 60 62 63 64 65 66 66 66 66 67 67 67 67
38 40 41 42 42 42 42 42 42 42 43 44 45 46 47 48 49 50 51 53 54 55 57 58 59 59 60 60 61 61 63 65 66 67 68 68 68 69 69 70 69 68
40 41 42 42 42 42 42 42 43 44 45 46 47 48 49 51 52 53 54 55 57 58 59 60 61 61 61 61 62 63 64 66 67 68 69 69 69 70 70 70 69 68
40 40 41 42 42 42 43 44 45 46 47 48 49 50 51 53 54 56 58 59 59 60 60 61 62 63 63 64 64 65 65 66 67 68 68 68 68 69 70 69 68 66

ECMWFNIL_700_spd_096.txt.gz
Wind_Speed
12 11 11 11 11 12 13 13 15 16 17 19 20 22 24 26 27 29 30 32 34 35 37 37 37 36 36 35 35 34 34 34 34 35 36 36 37 37 38 38 38 39
11 11 11 12 12 13 15 16 17 19 20 22 24 25 27 29 30 32 33 35 36 38 38 37 37 35 34 33 32 32 32 32 32 33 34 35 35 36 36 36 37 37
11 12 13 14 15 16 17 18 20 21 23 25 27 28 30 32 33 35 36 37 37 38 37 36 35 34 33 32 31 30 30 30 30 31 31 32 32 33 34 35 36 36
13 15 16 17 18 19 20 21 22 24 25 27 29 31 32 34 35 36 36 37 37 36 36 35 34 33 32 31 30 30 29 29 29 30 30 30 30 31 32 33 34 35
16 17 18 19 20 21 22 23 24 25 26 29 31 33 35 36 36 37 36 36 36 35 35 34 34 33 32 31 31 30 30 30 30 31 31 31 31 32 33 33 34 34
18 19 20 20 21 23 24 25 26 27 28 31 33 35 36 37 38 37 37 36 36 36 35 34 33 33 32 32 31 31 31 32 32 33 33 34 34 34 35 36 37 37
19 20 21 22 23 25 26 27 29 30 32 33 35 37 38 39 38 38 37 36 36 35 34 33 33 33 33 33 33 33 33 34 35 35 35 36 36 36 37 38 39 39
21 22 24 25 26 27 29 31 32 34 35 36 37 38 39 39 38 37 36 35 34 34 34 34 34 34 34 35 35 35 35 36 36 36 37 37 37 38 38 39 40 40
24 25 26 27 28 30 31 33 34 35 36 37 38 38 39 39 38 36 35 35 34 34 35 35 35 36 36 36 37 37 37 38 38 38 39 39 40 40 40 41 42 42
26 27 27 28 30 32 34 35 36 37 37 38 38 39 40 39 38 37 36 35 35 36 36 36 36 37 37 38 38 39 39 40 40 41 42 43 43 44 44 44 45 45
27 28 28 30 32 34 37 38 38 38 39 40 40 41 40 39 38 37 37 36 36 36 37 37 37 38 38 39 40 41 42 42 43 44 44 45 45 45 45 46 46 46
29 29 31 32 34 36 39 40 41 41 42 42 42 41 41 40 39 38 37 37 37 37 37 38 39 39 40 41 42 43 44 45 45 46 46 46 46 45 45 46 46 47
30 31 33 34 35 36 39 42 43 43 44 43 42 41 40 39 39 38 38 38 38 39 39 39 40 41 42 44 45 46 46 47 47 46 46 46 46 46 46 46 47 47
31 32 34 35 36 37 40 42 44 45 45 43 42 41 40 39 39 39 39 39 39 40 40 41 42 43 44 45 46 46 47 47 47 47 47 48 47 47 48 48 49 50
32 34 36 37 38 39 41 43 45 45 44 43 41 40 39 39 39 39 39 39 40 40 41 42 43 44 45 45 46 47 48 48 49 49 50 51 51 51 51 51 52 53
34 36 37 39 39 40 41 44 45 45 43 41 40 39 39 39 39 39 40 40 41 42 42 42 42 43 44 44 46 48 49 50 51 52 53 54 55 55 55 55 55 56
36 37 39 40 40 40 41 43 45 44 42 40 39 39 39 39 39 40 41 42 43 44 43 43 42 42 43 44 45 47 49 52 53 54 55 56 57 58 59 59 59 60
37 39 40 41 41 40 41 43 44 43 41 40 39 39 39 39 40 42 43 44 45 45 45 44 43 43 44 45 47 48 50 53 54 56 57 58 59 61 62 62 63 63
39 42 43 42 41 41 42 43 43 42 41 40 39 40 40 41 42 44 45 45 46 45 45 44 44 45 46 47 49 50 52 54 56 58 59 61 62 63 64 65 67 67
42 44 44 42 41 41 42 42 41 41 40 40 41 41 42 43 45 45 46 45 45 45 45 46 46 47 49 50 51 53 55 57 59 61 62 63 65 66 67 68 69 70
43 45 44 42 42 41 41 41 40 40 40 41 42 43 44 46 46 46 46 45 45 46 47 48 48 49 51 52 54 56 58 59 61 63 65 66 67 67 68 69 70 71
44 45 44 43 42 41 40 40 40 40 41 42 44 45 46 46 46 46 45 46 46 47 48 49 50 51 53 55 56 58 60 61 63 65 66 67 67 67 68 69 70 70
44 45 44 42 41 40 39 39 40 41 42 44 45 46 46 46 45 45 46 47 48 49 50 51 52 54 56 57 58 59 60 61 63 64 65 66 66 66 67 69 69 69
43 43 42 40 39 39 39 40 41 42 44 45 46 47 46 46 46 47 48 49 50 51 52 54 55 56 57 57 56 56 56 57 59 61 63 64 65 66 67 69 70 70
42 42 40 39 39 39 41 42 43 45 46 47 47 47 47 47 48 49 49 50 52 53 54 56 57 57 57 54 52 51 53 55 58 62 64 66 68 70 71 71 72 73
42 41 40 40 40 42 43 45 46 47 47 47 46 47 47 48 49 50 51 53 54 55 56 56 56 56 54 51 50 51 54 57 61 64 67 70 72 74 76 77 77 78